{"data":{"norad_id":62526,"intl_designator":"2025-004R","name":"STARLINK-32741","alt_names":[],"object_type":"PAYLOAD","status":"ACTIVE","operator":null,"country":"US","launch_date":"2025-01-08","launch_site_code":"AFETR","launch_vehicle":null,"mission":null,"orbit_class":"UNKNOWN","rcs_meters":null,"size_class":null,"mass_kg":null,"dimensions":null,"purposes":["comms"],"wikipedia_slug":null,"has_3d_model":false,"image_url":null,"decayed_at":null,"tle_current":{"epoch":"2026-05-25T01:03:06.708096Z","epoch_age_seconds":78189,"freshness":"FRESH","line1":"1 62526U 25004R   26145.04382764  .00013428  00000+0  49641-3 0  9998","line2":"2 62526  43.0005 145.4039 0000908 269.8686  90.2061 15.27592292 78178","mean_motion":15.27592292,"eccentricity":9.08e-5,"inclination_deg":43.0005,"raan_deg":145.4039,"arg_perigee_deg":269.8686,"mean_anomaly_deg":90.2061,"bstar":0.00049641,"rev_number":7817,"period_min":94.26599018215,"perigee_km":482.38929726094,"apogee_km":483.63528197194,"semimajor_km":6861.1492896164,"source":"CELESTRAK","updated_at":"2026-05-25T13:38:19.704960Z"}}}